Location: ????????
(60.4333°N, 46.4710°E)
Time: 18:42:24
(UTC+00:00)

Cosmos 2333 Rocket - Pass Details

Date: 25 November 2020
Orbit: 841 x 861 km, 70.8° (Epoch: 17 January)

Event Time Altitude Azimuth Distance (km) Brightness Sun altitude
Rises 15:11:35 0° 238° (WSW) 3,406 6.4 -21.8°
Reaches altitude 10° 15:14:05 10° 243° (WSW) 2,470 5.6 -22.1°
Maximum altitude 15:19:39 56° 322° (NW) 1,000 2.7 -22.8°
Enters shadow 15:22:22 30° 27° (NNE) 1,486 3.2 -23.1°
